PERPET Weather Reports


Display with metric or nautical units.
time (UTC)temp
F
wind
direction
speed
MPH
gust
MPH
rain 1hr
in
rain 24hr
in
rain mn
in
humidity
%
barometer
mb
20200118171323 43 247 16.0 43.0 0.02 0.30 0.26 1018.5
20200118170823 43 207 15.0 43.0 0.02 0.30 0.25 1018.1
20200118170325 43 193 12.0 39.0 0.01 0.31 0.25 1018.1
20200118165823 43 189 12.0 39.0 0.01 0.31 0.24 1018.3
20200118165323 43 196 17.0 39.0 0.01 0.31 0.24 1018.0
20200118164823 43 197 15.0 36.0 0.01 0.31 0.24 1017.9
20200118164324 43 190 16.0 44.0 0.00 0.31 0.24 1017.6
20200118163823 43 184 15.0 44.0 0.00 0.31 0.23 1017.6
20200118163324 43 190 17.0 44.0 0.00 0.31 0.23 1017.5
20200118162823 43 198 14.0 42.0 0.00 0.31 0.23 1017.3
20200118162323 42 228 20.0 38.0 0.00 0.31 0.23 1016.9
20200118161828 43 191 20.0 33.0 0.00 0.31 0.23 1017.1
20200118161323 43 215 18.0 48.0 0.00 0.31 0.23 1016.9
20200118160823 43 187 18.0 48.0 0.00 0.31 0.23 1016.8
20200118160324 43 189 18.0 48.0 0.00 0.34 0.23 1016.8
20200118155823 43 200 20.0 44.0 0.00 0.34 0.23 1016.6
20200118155323 43 208 18.0 44.0 0.00 0.34 0.23 1016.6
20200118154823 43 182 20.0 46.0 0.00 0.34 0.23 1016.4
20200118154323 43 175 17.0 46.0 0.00 0.34 0.23 1016.3
20200118153823 43 196 20.0 46.0 0.00 0.34 0.23 1016.0
20200118153324 43 196 17.0 46.0 0.00 0.34 0.23 1016.0
20200118152323 43 197 17.0 50.0 0.00 0.34 0.23 1015.6
20200118151323 43 191 16.0 50.0 0.00 0.34 0.23 1015.9
20200118150823 42 198 18.0 50.0 0.00 0.34 0.23 1015.7
20200118150323 42 236 20.0 50.0 0.01 0.37 0.23 1015.8
20200118145823 43 105 18.0 40.0 0.01 0.37 0.23 1015.6
20200118145323 42 235 17.0 36.0 0.01 0.37 0.23 1015.5
20200118144323 43 191 19.0 47.0 0.01 0.37 0.23 1015.7
20200118143823 43 212 9.0 47.0 0.01 0.37 0.23 1015.6
20200118143323 42 154 21.0 44.0 0.01 0.37 0.23 1015.1
20200118142323 42 212 17.0 37.0 0.01 0.37 0.23 1015.2
20200118141823 42 204 16.0 42.0 0.01 0.37 0.23 1015.3
20200118141323 42 163 18.0 42.0 0.01 0.37 0.23 1015.0
20200118140823 42 204 11.0 42.0 0.01 0.37 0.23 1015.1
20200118140323 42 196 15.0 31.0 0.00 0.39 0.22 1015.2
20200118135823 42 169 11.0 36.0 0.00 0.39 0.22 1015.1
20200118135322 42 121 12.0 36.0 0.00 0.39 0.22 1015.2
20200118134823 42 190 14.0 36.0 0.00 0.39 0.22 1015.2
20200118134323 41 180 20.0 34.0 0.01 0.39 0.22 1014.8
20200118133822 42 161 18.0 32.0 0.01 0.39 0.22 1015.1
20200118133323 42 134 10.0 28.0 0.01 0.39 0.22 1015.1
20200118132823 41 154 12.0 28.0 0.01 0.39 0.22 1015.2
20200118132323 41 127 17.0 28.0 0.01 0.39 0.22 1015.0
20200118131823 41 218 10.0 32.0 0.01 0.39 0.22 1015.1
20200118130822 41 193 10.0 32.0 0.01 0.39 0.22 1015.0
20200118130324 40 210 9.0 32.0 0.01 0.42 0.22 1015.0
20200118125822 41 166 16.0 34.0 0.01 0.42 0.22 1015.0
20200118125322 41 194 8.0 34.0 0.02 0.42 0.22 1015.0
20200118124822 41 161 14.0 34.0 0.02 0.42 0.22 1014.8
20200118124322 41 196 14.0 33.0 0.01 0.42 0.22 1014.7
20200118123822 40 161 14.0 33.0 0.01 0.42 0.22 1014.7
20200118123323 40 128 13.0 32.0 0.02 0.42 0.21 1014.7
20200118122822 40 141 14.0 32.0 0.02 0.42 0.21 1014.6
20200118122322 40 152 13.0 35.0 0.02 0.42 0.21 1014.6
20200118121322 40 135 19.0 35.0 0.03 0.42 0.21 1014.6
20200118120822 40 142 11.0 29.0 0.03 0.42 0.21 1014.7
20200118120323 40 162 14.0 27.0 0.04 0.42 0.21 1014.5
20200118115822 40 159 15.0 30.0 0.04 0.42 0.21 1014.7
20200118115322 40 137 14.0 30.0 0.03 0.42 0.20 1014.7
20200118114822 39 158 18.0 30.0 0.03 0.42 0.20 1014.6
20200118114323 39 156 13.0 27.0 0.04 0.42 0.20 1014.6
20200118113822 40 155 11.0 27.0 0.04 0.42 0.20 1015.0
20200118113323 39 162 12.0 27.0 0.04 0.42 0.20 1014.7
20200118112323 40 107 18.0 31.0 0.07 0.42 0.19 1014.5
20200118111822 39 201 13.0 31.0 0.07 0.42 0.19 1014.5
20200118111322 39 86 11.0 28.0 0.09 0.42 0.19 1014.5
20200118110822 39 138 12.0 27.0 0.09 0.42 0.18 1014.8
20200118110323 39 92 9.0 23.0 0.11 0.34 0.18 1014.7
20200118105822 39 135 9.0 37.0 0.11 0.34 0.17 1014.5
20200118105322 39 201 16.0 37.0 0.13 0.34 0.17 1014.3
20200118104322 39 203 16.0 31.0 0.13 0.34 0.17 1013.9
20200118103822 39 133 12.0 35.0 0.13 0.34 0.16 1014.2
20200118103322 39 145 16.0 35.0 0.12 0.34 0.15 1014.3
20200118102822 39 156 13.0 35.0 0.12 0.34 0.15 1014.4
20200118102322 39 161 15.0 31.0 0.09 0.34 0.14 1014.5
20200118101822 39 92 14.0 30.0 0.09 0.34 0.12 1015.0
20200118101322 39 194 19.0 29.0 0.06 0.34 0.11 1015.0
20200118100823 40 159 16.0 26.0 0.06 0.34 0.09 1014.8
20200118100322 40 159 12.0 40.0 0.03 0.28 0.07 1014.5
20200118095822 40 155 6.0 40.0 0.03 0.28 0.07 1015.1
20200118095322 41 200 8.0 40.0 0.01 0.28 0.05 1015.1
20200118094823 41 183 9.0 26.0 0.01 0.28 0.04 1014.8
20200118094322 41 196 12.0 35.0 0.00 0.28 0.03 1015.0
20200118093822 41 147 18.0 35.0 0.00 0.28 0.03 1014.7
20200118093322 41 166 14.0 35.0 0.00 0.28 0.03 1015.0
20200118092822 41 134 13.0 32.0 0.00 0.28 0.03 1014.6
20200118092322 42 155 12.0 32.0 0.00 0.28 0.03 1014.8
20200118091321 42 126 12.0 29.0 0.00 0.28 0.03 1014.8
20200118090822 42 149 14.0 26.0 0.00 0.28 0.03 1014.5
20200118090322 42 201 16.0 34.0 0.00 0.28 0.03 1014.6
20200118085821 42 149 17.0 34.0 0.00 0.28 0.03 1015.0
20200118085321 42 147 16.0 34.0 0.00 0.28 0.03 1014.7
20200118084321 42 182 13.0 39.0 0.00 0.28 0.03 1014.8
20200118083821 42 154 13.0 39.0 0.00 0.28 0.03 1015.0
20200118083322 42 158 14.0 39.0 0.00 0.28 0.03 1015.0
20200118082821 42 198 12.0 35.0 0.00 0.28 0.03 1015.0
20200118082321 42 144 10.0 33.0 0.00 0.28 0.03 1015.2
20200118081821 42 114 21.0 33.0 0.00 0.28 0.03 1015.0
20200118081321 42 142 12.0 32.0 0.00 0.28 0.03 1015.2
20200118080822 42 177 13.0 29.0 0.00 0.28 0.03 1015.1
20200118080322 41 102 15.0 29.0 0.00 0.29 0.03 1015.1
20200118075821 42 161 10.0 34.0 0.00 0.29 0.03 1014.6
20200118075321 42 159 14.0 34.0 0.00 0.29 0.03 1015.0
20200118074821 42 217 11.0 34.0 0.00 0.29 0.03 1015.0
20200118074321 42 114 14.0 30.0 0.00 0.29 0.03 1014.8
20200118073821 41 100 13.0 30.0 0.00 0.29 0.03 1015.0
20200118073322 41 141 15.0 30.0 0.00 0.29 0.03 1015.0
20200118072821 41 127 15.0 30.0 0.00 0.29 0.03 1015.1
20200118072321 41 138 10.0 30.0 0.00 0.29 0.03 1015.2
20200118071321 41 158 14.0 36.0 0.00 0.29 0.03 1015.2
20200118070821 41 124 16.0 36.0 0.00 0.29 0.03 1015.4
20200118065821 41 194 11.0 30.0 0.00 0.29 0.03 1015.5
20200118065321 41 124 14.0 26.0 0.00 0.29 0.03 1015.5
20200118064821 41 151 12.0 26.0 0.00 0.29 0.03 1015.8
20200118063822 41 116 11.0 29.0 0.00 0.29 0.03 1015.6
20200118063322 40 168 13.0 29.0 0.00 0.29 0.03 1015.6
20200118062821 41 120 12.0 29.0 0.00 0.29 0.03 1015.5
20200118062321 40 152 10.0 31.0 0.00 0.29 0.03 1015.6
20200118061321 41 120 12.0 31.0 0.00 0.29 0.03 1015.6
20200118060821 41 138 7.0 24.0 0.00 0.29 0.03 1015.4
20200118060322 41 96 11.0 24.0 0.00 0.29 0.03 1015.7
20200118055321 40 186 13.0 29.0 0.00 0.29 0.03 1015.5
20200118054821 40 166 14.0 29.0 0.00 0.29 0.03 1015.7
20200118054321 40 189 12.0 27.0 0.00 0.29 0.03 1015.5
20200118053821 40 155 10.0 35.0 0.00 0.29 0.03 1015.6
20200118053321 40 152 17.0 35.0 0.00 0.29 0.03 1015.7
20200118052821 40 166 10.0 35.0 0.00 0.29 0.03 1016.0
20200118052321 40 142 13.0 26.0 0.00 0.29 0.03 1015.8
20200118051321 40 140 11.0 28.0 0.00 0.29 0.03 1015.9
20200118050821 40 147 15.0 28.0 0.00 0.29 0.03 1015.7
20200118050321 40 138 10.0 26.0 0.00 0.29 0.03 1016.1
20200118045821 40 114 10.0 26.0 0.00 0.29 0.03 1015.7
20200118045321 40 134 13.0 26.0 0.00 0.29 0.03 1015.7
20200118044321 40 135 14.0 33.0 0.00 0.29 0.03 1016.0
20200118043821 39 119 9.0 33.0 0.00 0.29 0.03 1015.9
20200118043321 39 149 9.0 33.0 0.00 0.29 0.03 1016.1
20200118042821 40 182 9.0 26.0 0.00 0.29 0.03 1016.1
20200118042321 40 110 9.0 26.0 0.00 0.29 0.03 1015.9
20200118041821 40 163 10.0 25.0 0.00 0.29 0.03 1016.2
20200118041321 39 155 13.0 30.0 0.00 0.29 0.03 1016.2
20200118040820 39 156 10.0 30.0 0.00 0.29 0.03 1016.2
20200118040321 39 130 12.0 30.0 0.00 0.29 0.03 1016.4
20200118035320 39 131 15.0 26.0 0.01 0.29 0.03 1016.4
20200118034821 39 163 6.0 31.0 0.01 0.29 0.03 1016.7
20200118034320 39 137 11.0 31.0 0.01 0.29 0.03 1016.7
20200118033820 39 61 13.0 31.0 0.01 0.29 0.03 1016.6
20200118033321 39 147 11.0 26.0 0.01 0.29 0.03 1016.6
20200118032820 39 147 10.0 26.0 0.01 0.29 0.03 1016.6
20200118032320 39 134 12.0 25.0 0.01 0.29 0.03 1016.3
20200118031321 40 137 12.0 23.0 0.01 0.29 0.03 1016.8
20200118030321 39 110 10.0 33.0 0.01 0.28 0.03 1016.7
20200118025820 40 112 7.0 33.0 0.01 0.28 0.03 1016.8
20200118025320 39 121 5.0 27.0 0.00 0.28 0.02 1016.7
20200118024320 39 162 12.0 28.0 0.00 0.28 0.02 1016.9
20200118023820 39 186 12.0 28.0 0.00 0.28 0.02 1016.9
20200118023321 39 99 11.0 28.0 0.01 0.28 0.02 1017.0
20200118022820 39 131 10.0 23.0 0.01 0.28 0.02 1017.1
20200118022320 39 120 7.0 31.0 0.01 0.28 0.02 1017.1
20200118021320 39 134 10.0 31.0 0.01 0.28 0.02 1017.2
20200118020820 39 105 17.0 29.0 0.01 0.28 0.02 1017.1
20200118020321 40 152 7.0 28.0 0.01 0.27 0.02 1017.3
20200118015337 40 198 12.0 18.0 0.01 0.27 0.02 1017.4
20200118013820 39 134 10.0 25.0 0.01 0.27 0.02 1017.5
20200118013321 40 162 10.0 24.0 0.00 0.27 0.01 1017.7
20200118012820 40 186 10.0 24.0 0.00 0.27 0.01 1017.8
20200118012320 40 149 7.0 20.0 0.00 0.27 0.01 1017.6
20200118011820 40 180 10.0 27.0 0.00 0.27 0.01 1017.7
20200118011320 39 165 11.0 27.0 0.00 0.27 0.01 1017.7
20200118010820 39 123 10.0 27.0 0.00 0.27 0.01 1017.8
20200118010321 40 152 11.0 26.0 0.00 0.27 0.01 1017.9
20200118004820 40 154 10.0 26.0 0.01 0.27 0.01 1018.0
20200118004320 40 205 14.0 26.0 0.01 0.27 0.01 1018.1
20200118003820 40 155 11.0 24.0 0.01 0.27 0.01 1018.1
20200118003320 41 159 10.0 24.0 0.01 0.27 0.01 1018.1
20200118002820 41 149 5.0 24.0 0.01 0.27 0.01 1018.4
20200118002321 41 197 12.0 23.0 0.01 0.27 0.01 1018.0
20200118001820 40 162 9.0 23.0 0.01 0.27 0.01 1018.4
20200118001320 40 128 10.0 21.0 0.01 0.27 0.01 1018.4
20200118000822 40 154 10.0 21.0 0.01 0.27 0.01 1018.5
20200118000320 40 141 11.0 16.0 0.01 0.26 0.01 1018.5
20200117235820 40 189 3.0 23.0 0.01 0.26 0.01 1018.7
20200117235320 41 189 6.0 23.0 0.00 0.26 0.00 1018.8
20200117234320 39 158 8.0 21.0 0.00 0.26 0.00 1018.5
20200117233819 40 165 13.0 30.0 0.00 0.26 0.00 1018.7
20200117233322 40 147 7.0 30.0 0.01 0.26 0.00 1018.7
20200117232820 40 149 6.0 30.0 0.01 0.26 0.00 1018.6
20200117232319 40 126 11.0 20.0 0.01 0.26 0.00 1018.5
20200117231820 41 190 8.0 20.0 0.01 0.26 0.00 1018.6
20200117231320 40 158 11.0 17.0 0.01 0.26 0.00 1018.4
20200117230819 40 141 11.0 17.0 0.01 0.26 0.00 1018.6
20200117230320 40 173 10.0 26.0 0.01 0.26 0.00 1018.5
20200117225819 40 172 7.0 26.0 0.01 0.26 0.26 1018.6
20200117225319 39 149 10.0 26.0 0.01 0.26 0.26 1018.4
20200117224320 40 201 8.0 27.0 0.01 0.26 0.26 1018.5
20200117223819 40 214 14.0 27.0 0.01 0.26 0.26 1018.5
20200117223320 40 182 9.0 27.0 0.00 0.26 0.26 1018.6
20200117222819 40 194 9.0 23.0 0.00 0.25 0.25 1018.5
20200117222319 40 194 8.0 23.0 0.00 0.25 0.25 1018.6
20200117221820 40 142 7.0 23.0 0.00 0.25 0.25 1018.5
20200117221320 40 110 11.0 21.0 0.01 0.25 0.25 1018.6
20200117220820 40 191 11.0 30.0 0.01 0.25 0.25 1018.6
20200117220320 40 175 9.0 30.0 0.01 0.25 0.25 1018.7
20200117215820 39 203 11.0 30.0 0.01 0.25 0.25 1018.7
20200117215319 39 201 9.0 17.0 0.01 0.25 0.25 1018.7
20200117214319 39 120 8.0 27.0 0.01 0.25 0.25 1018.9
20200117213820 39 197 8.0 27.0 0.01 0.25 0.25 1019.0
20200117213320 39 140 13.0 24.0 0.01 0.25 0.25 1018.8
20200117212819 40 189 6.0 24.0 0.01 0.25 0.25 1019.1
20200117212319 39 112 9.0 29.0 0.01 0.25 0.25 1019.0
20200117211319 39 191 7.0 29.0 0.00 0.25 0.25 1019.0
20200117210819 39 200 11.0 29.0 0.00 0.24 0.24 1019.1
20200117210320 40 189 12.0 30.0 0.00 0.24 0.24 1019.0
20200117205819 40 126 10.0 30.0 0.00 0.24 0.24 1019.0
20200117205319 40 196 8.0 30.0 0.00 0.24 0.24 1019.0
20200117204319 42 204 3.0 13.0 0.00 0.24 0.24 1018.9
20200117203819 41 198 8.0 16.0 0.00 0.24 0.24 1019.1
20200117203320 40 210 7.0 16.0 0.00 0.24 0.24 1019.2
20200117202819 41 201 8.0 16.0 0.00 0.24 0.24 1019.2
20200117202319 40 156 7.0 15.0 0.00 0.24 0.24 1019.2
20200117201319 39 198 10.0 14.0 0.01 0.24 0.24 1019.1
20200117200819 39 204 8.0 14.0 0.01 0.24 0.24 1019.1
20200117200320 41 193 0.0 13.0 0.01 0.25 0.24 1019.2
20200117195319 41 196 4.0 10.0 0.02 0.25 0.24 1019.3
20200117194819 41 203 2.0 19.0 0.02 0.25 0.24 1019.3
20200117194319 40 198 3.0 19.0 0.02 0.25 0.24 1019.2
20200117193819 40 141 6.0 19.0 0.02 0.25 0.24 1019.2
20200117193319 40 204 6.0 19.0 0.02 0.25 0.24 1019.3
20200117192819 40 189 1.0 22.0 0.02 0.25 0.24 1019.2
20200117192319 39 184 5.0 22.0 0.02 0.25 0.24 1019.2
20200117191319 38 189 10.0 19.0 0.01 0.25 0.24 1019.2
20200117190319 39 197 9.0 20.0 0.01 0.27 0.23 1019.1
20200117185819 39 238 6.0 20.0 0.01 0.27 0.23 1019.1
20200117185319 38 210 10.0 20.0 0.00 0.27 0.23 1019.0
20200117184319 39 208 6.0 17.0 0.01 0.27 0.22 1018.9
20200117183819 39 196 6.0 17.0 0.01 0.27 0.22 1018.9
20200117183319 39 218 7.0 16.0 0.01 0.27 0.22 1018.7
20200117182319 39 217 7.0 12.0 0.01 0.27 0.22 1018.8
20200117181318 39 215 4.0 15.0 0.01 0.27 0.22 1018.7
20200117180819 38 215 5.0 15.0 0.01 0.27 0.22 1018.6
20200117180319 38 208 8.0 15.0 0.02 0.30 0.22 1018.5
20200117175819 38 205 7.0 19.0 0.02 0.30 0.22 1018.4
20200117175320 38 197 5.0 19.0 0.02 0.30 0.22 1018.4
20200117174819 38 193 8.0 19.0 0.02 0.30 0.22 1018.3
20200117174318 37 205 9.0 13.0 0.02 0.30 0.21 1018.0
20200117173820 38 200 5.0 13.0 0.02 0.30 0.21 1017.9
20200117173319 37 204 1.0 13.0 0.02 0.30 0.21 1017.9
20200117172819 38 189 2.0 13.0 0.02 0.30 0.21 1017.8
20200117172318 38 154 4.0 11.0 0.02 0.30 0.21 1017.7